Location: Kitt Peak
(31.9639°N, 111.5992°W)
Time: 16:32:54
(UTC-07:00)

DIWATA 2B (PO-101) - Pass Details

Date: 19 September 2024
Orbit: 572 x 585 km, 98.1° (Epoch: 10 October)

Event Time Altitude Azimuth Distance (km) Brightness Sun altitude
Exits shadow 04:31:14 36° 177° (S) 924 ? -22.1°
Maximum altitude 04:32:51 78° 257° (WSW) 590 ? -21.8°
Drops below altitude 10° 04:36:56 10° 345° (NNW) 1,882 ? -21.0°
Sets 04:39:05 0° 347° (NNW) 2,782 ? -20.5°
